| time (UTC) | temp F | wind direction | speed MPH | gust MPH | rain 1hr in | rain 24hr in | rain mn in | humidity % | barometer mb |
| 20260510230027 | 65 | 318 | 2.0 | 10.0 | 0.00 | 0.01 | 0.01 | 50 | 1016.5 |
| 20260510224525 | 66 | 223 | 7.0 | 10.0 | 0.00 | 0.02 | 0.01 | 48 | 1016.3 |
| 20260510223025 | 67 | 230 | 0.0 | 0.0 | 0.00 | 0.02 | 0.01 | 49 | 1016.0 |
| 20260510221529 | 67 | 256 | 0.0 | 0.0 | 0.00 | 0.02 | 0.01 | 49 | 1015.7 |
| 20260510220023 | 67 | 269 | 0.0 | 21.0 | 0.00 | 0.02 | 0.01 | 50 | 1015.5 |
| 20260510214521 | 68 | 296 | 3.0 | 7.0 | 0.00 | 0.08 | 0.01 | 51 | 1015.4 |
| 20260510213021 | 69 | 308 | 7.0 | 13.0 | 0.00 | 0.08 | 0.01 | 51 | 1015.3 |
| 20260510211522 | 69 | 229 | 4.0 | 14.0 | 0.00 | 0.08 | 0.01 | 50 | 1015.4 |
| 20260510210019 | 69 | 252 | 4.0 | 10.0 | 0.00 | 0.08 | 0.01 | 55 | 1015.3 |
| 20260510204521 | 70 | 304 | 3.0 | 13.0 | 0.00 | 0.14 | 0.01 | 56 | 1015.2 |
| 20260510203017 | 70 | 329 | 3.0 | 12.0 | 0.00 | 0.14 | 0.01 | 58 | 1015.2 |
| 20260510201515 | 68 | 278 | 5.0 | 10.0 | 0.00 | 0.14 | 0.01 | 59 | 1015.2 |
| 20260510200015 | 67 | 294 | 4.0 | 10.0 | 0.00 | 0.14 | 0.01 | 62 | 1015.3 |
| 20260510194514 | 68 | 331 | 3.0 | 12.0 | 0.00 | 0.17 | 0.01 | 64 | 1015.4 |
| 20260510193014 | 68 | 338 | 5.0 | 12.0 | 0.00 | 0.17 | 0.01 | 63 | 1015.3 |
| 20260510191512 | 69 | 280 | 3.0 | 11.0 | 0.00 | 0.17 | 0.01 | 62 | 1015.4 |
| 20260510190011 | 68 | 230 | 6.0 | 15.0 | 0.00 | 0.17 | 0.01 | 63 | 1015.3 |
| 20260510184505 | 66 | 280 | 2.0 | 7.0 | 0.00 | 0.27 | 0.01 | 73 | 1015.5 |
| 20260510183003 | 64 | 284 | 1.0 | 4.0 | 0.00 | 0.27 | 0.01 | 82 | 1015.8 |
| 20260510181504 | 64 | 171 | 3.0 | 6.0 | 0.00 | 0.27 | 0.01 | 74 | 1015.7 |
| 20260510180002 | 64 | 234 | 5.0 | 10.0 | 0.00 | 0.37 | 0.01 | 73 | 1015.6 |
| 20260510174600 | 65 | 161 | 7.0 | 18.0 | 0.00 | 0.37 | 0.01 | 73 | 1015.8 |
| 20260510173059 | 65 | 158 | 7.0 | 11.0 | 0.00 | 0.37 | 0.01 | 74 | 1016.0 |
| 20260510171602 | 63 | 236 | 0.0 | 3.0 | 0.00 | 0.37 | 0.01 | 79 | 1016.4 |
| 20260510170122 | 62 | 236 | 0.0 | 0.0 | 0.00 | 0.37 | 0.01 | 76 | 1016.5 |
| 20260510164605 | 64 | 263 | 0.0 | 0.0 | 0.00 | 0.44 | 0.01 | 75 | 1016.7 |
| 20260510163053 | 62 | 254 | 0.0 | 4.0 | 0.00 | 0.44 | 0.01 | 77 | 1016.6 |
| 20260510161549 | 61 | 266 | 3.0 | 9.0 | 0.00 | 0.44 | 0.01 | 80 | 1016.8 |
| 20260510160051 | 61 | 229 | 6.0 | 10.0 | 0.00 | 0.44 | 0.01 | 81 | 1016.9 |
| 20260510154547 | 61 | 225 | 3.0 | 10.0 | 0.00 | 0.48 | 0.01 | 81 | 1016.9 |
| 20260510153051 | 60 | 178 | 2.0 | 9.0 | 0.00 | 0.48 | 0.01 | 87 | 1016.9 |
| 20260510151540 | 58 | 226 | 5.0 | 10.0 | 0.00 | 0.48 | 0.01 | 87 | 1016.9 |
| 20260510150037 | 57 | 205 | 6.0 | 9.0 | 0.00 | 0.48 | 0.01 | 91 | 1017.0 |
| 20260510144535 | 56 | 269 | 3.0 | 9.0 | 0.00 | 0.52 | 0.01 | 93 | 1017.1 |
| 20260510143031 | 54 | 186 | 2.0 | 8.0 | 0.00 | 0.52 | 0.01 | 97 | 1017.3 |
| 20260510141630 | 53 | 221 | 1.0 | 8.0 | 0.00 | 0.52 | 0.01 | 98 | 1017.3 |
| 20260510140029 | 53 | 184 | 4.0 | 9.0 | 0.00 | 0.52 | 0.01 | 98 | 1017.3 |
| 20260510134526 | 53 | 307 | 3.0 | 7.0 | 0.00 | 0.52 | 0.01 | 99 | 1017.2 |
| 20260510133023 | 52 | 215 | 0.0 | 0.0 | 0.00 | 0.52 | 0.01 | 98 | 1017.2 |
| 20260510131521 | 51 | 200 | 0.0 | 0.0 | 0.00 | 0.52 | 0.01 | 98 | 1017.1 |
| 20260510130037 | 51 | 280 | 0.0 | 6.0 | 0.00 | 0.52 | 0.01 | 98 | 1017.1 |
| 20260510124519 | 50 | 186 | 0.0 | 8.0 | 0.00 | 0.52 | 0.01 | 98 | 1017.1 |
| 20260510123016 | 50 | 181 | 2.0 | 6.0 | 0.00 | 0.52 | 0.01 | 98 | 1017.3 |
| 20260510121514 | 49 | 123 | 0.0 | 4.0 | 0.00 | 0.52 | 0.01 | 98 | 1017.4 |
| 20260510120025 | 49 | 253 | 3.0 | 7.0 | 0.00 | 0.52 | 0.01 | 98 | 1017.2 |
| 20260510114515 | 49 | 202 | 2.0 | 5.0 | 0.00 | 0.52 | 0.01 | 98 | 1017.1 |
| 20260510113009 | 48 | 200 | 2.0 | 8.0 | 0.00 | 0.52 | 0.01 | 98 | 1017.2 |
| 20260510111506 | 48 | 227 | 5.0 | 10.0 | 0.00 | 0.52 | 0.01 | 98 | 1016.6 |
| 20260510110007 | 48 | 190 | 4.0 | 11.0 | 0.01 | 0.52 | 0.01 | 98 | 1016.7 |
| 20260510104501 | 47 | 194 | 4.0 | 10.0 | 0.01 | 0.52 | 0.01 | 98 | 1016.5 |
| 20260510103001 | 47 | 188 | 3.0 | 9.0 | 0.01 | 0.52 | 0.01 | 98 | 1016.2 |
| 20260510101600 | 47 | 217 | 5.0 | 10.0 | 0.01 | 0.52 | 0.01 | 98 | 1015.7 |
| 20260510094557 | 47 | 193 | 2.0 | 6.0 | 0.00 | 0.51 | 0.00 | 98 | 1016.1 |
| 20260510093102 | 47 | 187 | 3.0 | 5.0 | 0.00 | 0.51 | 0.00 | 98 | 1015.9 |
| 20260510091555 | 46 | 215 | 1.0 | 3.0 | 0.00 | 0.51 | 0.00 | 98 | 1016.0 |
| 20260510090055 | 46 | 214 | 1.0 | 3.0 | 0.00 | 0.51 | 0.00 | 98 | 1015.9 |
| 20260510084553 | 46 | 215 | 0.0 | 6.0 | 0.00 | 0.51 | 0.00 | 98 | 1016.1 |
| 20260510083102 | 47 | 230 | 0.0 | 4.0 | 0.00 | 0.51 | 0.00 | 98 | 1016.0 |
| 20260510081552 | 47 | 231 | 0.0 | 4.0 | 0.00 | 0.51 | 0.00 | 98 | 1016.0 |
| 20260510080052 | 47 | 236 | 0.0 | 3.0 | 0.00 | 0.51 | 0.00 | 98 | 1015.9 |
| 20260510074551 | 47 | 238 | 1.0 | 2.0 | 0.00 | 0.51 | 0.00 | 98 | 1016.0 |
| 20260510073055 | 47 | 238 | 0.0 | 1.0 | 0.00 | 0.51 | 0.00 | 98 | 1015.8 |
| 20260510071549 | 47 | 238 | 0.0 | 2.0 | 0.00 | 0.51 | 0.00 | 98 | 1015.8 |
| 20260510070050 | 47 | 232 | 0.0 | 5.0 | 0.00 | 0.51 | 0.00 | 98 | 1016.2 |
| 20260510064547 | 46 | 248 | 0.0 | 7.0 | 0.00 | 0.51 | 0.00 | 98 | 1016.1 |
| 20260510063047 | 46 | 203 | 3.0 | 5.0 | 0.00 | 0.51 | 0.00 | 97 | 1015.9 |
| 20260510061546 | 46 | 185 | 0.0 | 2.0 | 0.00 | 0.51 | 0.00 | 97 | 1016.1 |
| 20260510060043 | 46 | 180 | 0.0 | 0.0 | 0.00 | 0.51 | 0.00 | 97 | 1016.0 |
| 20260510054541 | 46 | 180 | 0.0 | 0.0 | 0.00 | 0.51 | 0.00 | 97 | 1016.1 |
| 20260510053041 | 45 | 180 | 0.0 | 0.0 | 0.00 | 0.51 | 0.00 | 97 | 1016.2 |
| 20260510051539 | 46 | 180 | 0.0 | 0.0 | 0.00 | 0.51 | 0.00 | 97 | 1016.6 |
| 20260510050042 | 45 | 178 | 0.0 | 0.0 | 0.00 | 0.51 | 0.00 | 97 | 1016.5 |
| 20260510044538 | 45 | 176 | 0.0 | 2.0 | 0.00 | 0.51 | 0.00 | 97 | 1016.6 |
| 20260510043036 | 45 | 176 | 0.0 | 1.0 | 0.00 | 0.51 | 0.00 | 97 | 1016.7 |
| 20260510041533 | 45 | 176 | 0.0 | 1.0 | 0.00 | 0.51 | 0.00 | 97 | 1016.4 |
| 20260510040033 | 45 | 173 | 2.0 | 6.0 | 0.00 | 0.51 | 0.00 | 97 | 1016.3 |
| 20260510034531 | 44 | 153 | 0.0 | 1.0 | 0.00 | 0.51 | 0.51 | 97 | 1016.6 |
| 20260510033137 | 44 | 153 | 0.0 | 2.0 | 0.00 | 0.51 | 0.51 | 96 | 1016.9 |
| 20260510031529 | 44 | 32 | 0.0 | 0.0 | 0.00 | 0.51 | 0.51 | 96 | 1017.1 |
| 20260510030029 | 44 | 32 | 0.0 | 0.0 | 0.00 | 0.51 | 0.51 | 96 | 1017.1 |
| 20260510024528 | 44 | 28 | 0.0 | 0.0 | 0.00 | 0.51 | 0.51 | 96 | 1017.5 |
| 20260510023030 | 44 | 108 | 0.0 | 0.0 | 0.00 | 0.51 | 0.51 | 96 | 1017.3 |
| 20260510021530 | 44 | 152 | 0.0 | 0.0 | 0.00 | 0.51 | 0.51 | 96 | 1017.5 |
| 20260510020026 | 44 | 188 | 0.0 | 0.0 | 0.00 | 0.51 | 0.51 | 96 | 1017.6 |
| 20260510014524 | 44 | 190 | 0.0 | 0.0 | 0.00 | 0.51 | 0.51 | 96 | 1017.8 |
| 20260510013024 | 44 | 191 | 0.0 | 0.0 | 0.00 | 0.51 | 0.51 | 96 | 1017.7 |
| 20260510011524 | 44 | 127 | 0.0 | 0.0 | 0.00 | 0.51 | 0.51 | 96 | 1017.5 |
| 20260510010024 | 44 | 115 | 0.0 | 0.0 | 0.00 | 0.51 | 0.51 | 96 | 1017.5 |
| 20260510004523 | 44 | 142 | 0.0 | 0.0 | 0.00 | 0.51 | 0.51 | 95 | 1017.4 |
| 20260510003022 | 44 | 140 | 0.0 | 0.0 | 0.00 | 0.51 | 0.51 | 95 | 1017.4 |
| 20260510001521 | 44 | 188 | 0.0 | 0.0 | 0.00 | 0.51 | 0.51 | 95 | 1017.3 |
| 20260510000028 | 44 | 196 | 0.0 | 0.0 | 0.00 | 0.51 | 0.51 | 95 | 1017.2 |
| 20260509234535 | 44 | 168 | 0.0 | 0.0 | 0.00 | 0.51 | 0.51 | 95 | 1017.1 |
| 20260509233019 | 44 | 151 | 0.0 | 0.0 | 0.00 | 0.51 | 0.51 | 95 | 1017.0 |
| 20260509231519 | 44 | 168 | 0.0 | 0.0 | 0.01 | 0.51 | 0.51 | 95 | 1016.8 |